Torna al catalogo

ONEWEB-0193

AttivoComunicazioniPO
NORAD 48238·PAYLOAD·🇬🇧 United Kingdom

Lanciato Apr 25, 2021 da Vostochny Cosmodrome

Loading…

Prossimi Passaggi (prossime 24 ore)

TLE

AggiornatoSource: CelesTrak SupGP

Epoca: Sep 14, 2026, 21:31 UTC

1 48238C 21031AE  26257.89706435  .00003478  00000+0  93939-2 0  2579
2 48238  87.8901 271.8108 0002301  87.8950 312.1821 13.14496451    17

Traccia ONEWEB-0193 in tempo reale con AllMySat

Download on the App Store